Location: Oberwangen
(47.4286°N, 8.9679°E)
Time: 15:29:24
(UTC+00:00)

SL-16 R/B - Pass Details

Date: 20 June 2021
Orbit: 842 x 846 km, 71.0° (Epoch: 02 August)

Event Time Altitude Azimuth Distance (km) Brightness Sun altitude
Rises 20:44:01 0° 236° (SW) 3,392 5.4 -10.3°
Reaches altitude 10° 20:46:42 10° 246° (WSW) 2,461 4.8 -10.6°
Maximum altitude 20:51:45 33° 310° (NW) 1,395 4.1 -11.1°
Drops below altitude 10° 20:56:51 10° 13° (NNE) 2,475 5.3 -11.6°
Sets 20:59:34 0° 23° (NNE) 3,415 5.8 -11.9°
